Location: Newark
(50.4348°N, 30.5552°E)
Time: 19:08:46
(UTC+00:00)

Vanguard 3 - Pass Details

Date: 20 January 2020
Orbit: 508 x 3263 km, 33.3° (Epoch: 19 February)

Event Time Altitude Azimuth Distance (km) Brightness Sun altitude
Rises 15:35:59 0° 211° (SSW) 7,204 12.9 -10.4°
Reaches altitude 10° 15:42:07 10° 201° (SSW) 6,181 12.2 -11.3°
Maximum altitude 15:56:12 26° 155° (SSE) 4,471 10.8 -13.5°
Enters shadow 16:07:14 10° 106° (ESE) 4,861 10.6 -15.2°
